Regional Weather Roundup
Issued by NWS Spokane, WA

Home | Current Version | Previous Version | Text Only | Print | Product List | Glossary On
Versions: 1 2 3 4 5 6 7 8 9 10 11 12 13 14 15 16 17 18 19 20 21 22 23 24 25 26 27 28 29 30 31 32 33 34 35 36 37 38 39 40 41 42 43 44 45 46 47 48 49 50
000
NZUS01 KOTX 180410
RWROTX
EASTERN WASHINGTON/NORTHERN IDAHO ROUNDUP
NATIONAL WEATHER SERVICE, SPOKANE WA
900 PM PDT THU APR 17 2014

Note: "fair" indicated few or no clouds below 12,000 feet with no
significant weather and/or obstructions to visibility.

...NORTHEAST WASHINGTON AND NORTHERN IDAHO PANHANDLE...

CITY           SKY/WX    TMP DP  RH WIND       PRES   REMARKS
SPOKANE INTL   LGT RAIN  46  43  89 SW16      29.75R
SPOKANE DOWNTO LGT RAIN  49  46  90 SW6       29.76S
COEUR D ALENE  CLOUDY    46  45  93 S7        29.77R
DEER PARK      LGT RAIN  47  45  93 S6        29.75S
SANDPOINT      RAIN      45  45 100 CALM      29.75S

...SOUTHEAST WASHINGTON AND SOUTHERN IDAHO PANHANDLE...

CITY           SKY/WX    TMP DP  RH WIND       PRES   REMARKS
WALLA WALLA    CLOUDY    52  46  80 S10       29.82S
PULLMAN/MOSCOW LGT RAIN  45  42  89 SW8       29.82R
LEWISTON       LGT RAIN  50  46  86 SE3       29.81R
LOWELL           N/A     50  47  89 S3        29.83R

...COLUMBIA BASIN...

CITY           SKY/WX    TMP DP  RH WIND       PRES   REMARKS
EPHRATA        CLOUDY    50  47  89 S7        29.71S
MOSES LAKE     CLOUDY    51  47  86 S14       29.73R
TRI CITIES     CLOUDY    54  48  80 SW17      29.81R
HERMISTON      CLOUDY    52  49  89 S9        29.82R
PENDLETON      CLOUDY    48  46  93 S5        29.83R

...EAST SLOPES CASCADES...

CITY           SKY/WX    TMP DP  RH WIND       PRES   REMARKS
THE DALLES     LGT RAIN  52  46  80 CALM      29.83R
YAKIMA         CLOUDY    56  37  49 SW12      29.75R
ELLENSBURG     MOCLDY    46  40  79 NW12      29.72S
WENATCHEE      CLOUDY    53  47  79 CALM      29.70F
OMAK           LGT RAIN  51  45  79 S9        29.68S

...SOUTHERN BRITISH COLUMBIA...

CITY           SKY/WX    TMP DP  RH WIND       PRES   REMARKS
PENTICTON      LGT RAIN  50  45  81 S14       29.63F
CRANBROOK      LGT RAIN  45  37  76 SE7       29.71S

...WESTERN MONTANA...

CITY           SKY/WX    TMP DP  RH WIND       PRES   REMARKS
MISSOULA       LGT RAIN  46  44  93 NW3       29.76S

...NEIGHBORING CITIES...

CITY           SKY/WX    TMP DP  RH WIND       PRES   REMARKS
SEATTLE        CLOUDY    47  44  90 SW22G28   29.80R
CALGARY        CLOUDY    37  34  87 N10       29.67S



USA.gov is the U.S. government's official web portal to all federal, state and local government web resources and services.